Wind_Speed
4 6 13 10 9 2 3 5 7 3 5 9 11 11 11 12 20 20 18 20 21 21 16 16 18 15 15 16 15 15 16 18 20 21 19 15 13 11 10 13 13 15 9 8
5 15 8 4 6 7 7 8 7 1 5 10 5 15 16 17 24 27 26 23 23 20 16 17 21 19 19 17 16 16 17 19 22 21 17 14 12 12 8 13 13 14 9 8
11 2 10 7 5 7 10 9 7 4 5 6 7 9 8 12 22 21 28 29 25 24 19 18 22 22 22 20 18 17 19 20 20 19 17 13 14 13 11 12 13 14 10 7
7 8 6 4 7 8 13 4 9 6 5 3 2 6 6 5 12 18 23 26 26 25 22 19 23 25 25 23 19 19 19 18 19 19 18 15 15 14 12 11 11 11 9 7
7 6 13 17 17 8 5 4 1 4 3 5 4 4 3 2 7 16 23 25 27 27 25 23 28 26 25 25 21 21 22 20 18 18 17 16 15 14 12 12 12 11 9 8
13 2 4 16 6 9 6 8 8 5 1 3 1 4 6 3 3 3 15 26 28 28 26 25 25 25 24 25 23 22 22 23 21 18 16 15 15 16 14 15 13 14 12 9
9 13 9 5 7 4 7 6 1 1 2 4 1 5 10 5 9 11 10 16 28 28 28 25 26 30 29 31 28 25 25 23 24 22 19 16 14 15 11 14 14 14 15 13
10 10 10 10 15 8 12 9 4 5 4 5 2 5 4 3 9 7 5 8 18 25 29 28 29 31 29 31 30 28 26 24 23 23 22 19 16 16 15 13 16 15 16 14
6 6 2 6 6 10 6 7 1 2 1 4 3 6 11 4 4 2 3 6 15 22 27 30 30 28 27 32 33 28 26 25 23 22 21 21 19 18 16 15 16 18 15 17
7 6 5 2 6 3 6 11 4 2 5 7 3 5 6 4 6 4 5 7 10 15 19 23 27 30 25 27 30 29 26 24 24 23 23 21 21 19 15 15 16 15 15 16
10 6 4 1 10 14 5 5 2 2 2 3 4 5 3 5 7 9 8 9 9 12 17 21 25 29 26 25 25 25 25 24 22 23 22 24 21 20 18 16 15 16 16 17
11 9 13 18 1 1 4 7 14 8 7 1 3 6 2 4 6 6 6 8 8 9 12 15 18 23 24 22 22 24 23 21 19 20 20 21 22 22 21 19 16 17 16 16
9 8 7 6 6 3 5 7 8 5 3 6 6 6 3 3 6 10 7 9 8 10 12 13 14 18 19 22 25 22 22 21 18 21 20 20 21 19 19 18 16 17 17 18
15 6 10 9 8 4 6 8 11 12 6 7 9 12 8 6 6 9 9 10 12 12 13 13 13 14 16 20 21 22 20 20 15 17 21 22 19 19 17 16 16 17 17 18
8 9 8 15 11 9 11 10 15 13 11 9 11 10 15 8 11 14 13 13 14 13 13 12 12 12 13 16 19 21 20 21 17 10 13 12 8 7 14 18 17 17 16 19
2 7 3 6 3 10 13 11 15 13 7 4 5 8 7 4 7 12 13 15 14 13 13 12 12 11 10 10 11 11 14 19 24 18 16 15 15 15 15 12 13 14 16 21
4 3 5 7 1 5 5 15 16 13 12 11 8 11 7 7 11 18 18 17 17 16 15 14 11 10 10 10 9 10 10 12 13 14 17 17 16 15 15 17 17 19 15 14
6 2 2 4 3 16 1 4 15 19 15 13 6 8 10 9 13 15 22 23 19 19 17 16 15 14 12 10 9 9 8 7 6 6 7 9 10 11 11 12 13 13 16 18
18 6 4 6 8 6 5 3 6 11 12 16 14 5 5 5 9 8 18 21 20 18 16 16 18 16 13 10 10 9 7 5 4 4 5 6 5 5 6 6 7 8 10 14
14 10 7 4 14 16 7 4 4 2 10 11 17 8 10 15 9 9 28 24 19 16 18 19 19 15 13 14 10 6 5 2 2 4 6 4 1 4 7 9 9 11 13 12
5 5 12 11 12 16 5 8 8 4 4 15 14 16 17 11 7 13 28 26 23 20 18 20 20 15 13 11 8 4 2 3 8 6 4 3 2 3 6 7 8 11 12 13
4 4 9 13 16 15 3 5 21 5 10 10 9 11 23 19 9 11 27 30 28 25 22 21 20 16 12 8 5 4 2 5 8 11 10 9 8 7 7 8 10 12 13 12
6 3 5 5 10 5 5 2 4 5 8 11 15 9 13 17 14 15 23 29 30 27 24 23 20 16 12 7 5 6 7 9 10 11 12 12 12 11 12 13 15 16 14 13
0 3 3 8 2 6 5 1 4 6 12 17 16 15 14 17 17 19 23 29 28 27 25 24 21 16 11 7 6 7 8 11 12 12 12 13 13 13 15 17 20 18 14 10
1 3 7 8 4 2 4 15 14 2 13 13 15 15 14 18 19 22 26 29 29 29 27 25 19 16 12 7 6 6 7 9 10 11 10 11 12 15 18 18 15 12 13 13
7 4 8 3 13 6 6 13 9 17 18 17 15 11 10 17 22 23 27 29 30 30 28 24 20 16 10 5 5 5 5 6 7 9 11 13 15 17 15 14 14 10 12 15
Wind_Direction
187 214 223 224 217 231 280 292 302 264 181 196 234 263 243 208 209 219 216 214 217 225 231 222 223 214 203 208 195 193 191 181 175 175 178 179 168 172 166 189 177 173 154 142
178 227 224 188 222 238 253 286 290 188 159 203 244 260 247 229 224 220 214 213 218 220 225 223 219 215 213 211 199 192 186 182 181 181 184 181 178 171 174 184 181 176 165 156
219 268 176 193 214 242 251 267 278 287 133 214 280 272 233 232 231 233 227 225 221 217 216 220 211 214 215 212 202 192 189 188 191 189 187 193 186 181 176 171 175 176 168 167
242 229 220 184 246 236 276 229 252 206 201 288 247 299 270 227 230 224 230 217 217 215 220 225 214 211 212 211 204 197 193 195 196 195 198 200 198 198 192 182 181 177 179 186
214 214 222 241 249 217 281 50 249 190 200 289 192 255 271 225 234 230 225 219 214 211 212 214 213 212 211 209 205 208 198 198 197 202 208 210 205 204 205 204 204 204 203 210
246 247 226 225 219 195 137 102 95 103 241 255 99 242 282 220 224 236 224 219 211 205 209 215 214 218 208 216 209 213 208 204 203 206 213 215 217 212 222 217 218 213 219 229
230 234 244 208 241 141 194 187 241 198 199 276 103 226 263 254 265 261 277 226 212 205 205 204 208 218 205 217 209 211 211 211 211 210 217 221 222 213 224 219 226 229 237 239
220 230 204 193 215 216 195 225 231 255 226 282 146 237 271 175 300 288 269 226 201 203 203 201 210 217 217 217 212 213 214 210 217 219 218 220 224 226 229 233 233 240 241 239
186 246 225 205 175 184 162 205 226 137 103 270 262 263 268 257 216 227 175 182 194 199 202 202 207 214 213 214 216 210 221 220 220 220 222 222 227 232 238 239 236 242 244 237
203 263 246 172 163 78 217 147 171 198 230 257 224 278 281 243 196 203 185 199 194 197 200 202 206 213 220 219 218 215 221 229 230 229 227 229 229 234 240 247 240 238 238 234
200 230 209 208 208 198 159 194 116 127 270 254 283 300 204 227 193 188 189 203 194 192 196 198 204 212 222 224 217 218 218 226 231 234 233 233 233 236 238 242 242 242 242 241
203 213 237 246 229 241 215 226 212 221 203 236 298 277 155 219 185 198 170 189 186 181 187 195 202 212 219 217 215 215 218 225 236 230 235 234 233 236 241 241 240 235 242 246
175 222 229 225 188 149 209 198 207 148 137 194 252 273 162 224 217 226 177 162 171 161 164 177 192 207 212 209 211 219 231 235 244 237 237 236 234 235 240 239 242 239 240 246
175 205 217 231 226 164 183 188 203 205 207 213 237 268 249 194 204 197 168 148 157 159 162 166 176 189 200 211 216 222 225 228 225 232 232 233 241 237 230 233 241 245 249 248
204 238 214 243 252 217 246 197 183 209 205 211 241 218 252 203 185 188 163 146 149 155 166 168 172 177 187 199 213 218 221 215 202 201 204 201 210 235 246 249 246 246 253 258
280 244 193 266 321 234 242 238 200 210 197 221 198 230 238 160 157 163 166 156 155 163 168 169 169 173 184 198 200 201 207 209 215 225 221 229 247 257 259 250 239 248 270 261
289 232 183 248 335 156 241 229 204 195 197 193 186 217 163 182 193 178 171 174 171 168 165 166 160 151 152 152 158 165 172 184 202 221 227 238 255 251 260 263 265 259 255 257
254 269 223 206 191 235 126 301 223 205 195 195 236 221 209 218 195 185 183 181 176 172 170 162 153 146 147 154 161 161 159 167 187 209 227 237 244 253 259 262 269 260 260 259
215 205 234 221 228 280 234 143 174 198 220 206 219 213 207 165 154 198 192 188 182 180 175 165 161 160 142 142 148 147 141 142 153 183 220 233 246 260 273 280 272 274 266 276
195 217 218 219 229 234 206 124 25 347 244 205 211 202 170 161 176 201 194 190 184 175 174 174 172 169 151 143 136 133 129 126 207 202 206 197 270 294 292 284 285 281 272 267
210 176 210 224 243 240 253 121 89 198 248 318 217 204 173 193 207 197 189 185 185 183 183 181 180 171 159 154 148 151 157 135 170 190 208 217 280 303 311 293 300 297 284 273
303 252 201 211 219 236 143 142 187 213 313 320 299 233 201 197 209 164 183 183 183 187 183 183 181 173 167 170 181 227 243 211 215 211 220 239 252 265 285 292 299 311 303 284
217 9 304 283 216 0 320 133 112 4 328 329 308 298 235 192 190 170 176 181 185 186 183 183 179 174 179 191 232 253 259 249 247 245 246 253 249 261 274 285 295 299 295 292
215 14 287 312 79 54 69 56 22 347 323 308 307 286 237 206 189 175 175 179 181 183 184 179 174 178 186 213 244 261 256 252 255 257 254 253 256 269 280 289 293 284 274 277
170 318 325 289 4 168 355 23 13 332 344 330 297 276 251 209 201 181 178 179 178 176 176 177 176 178 192 214 255 272 266 254 252 251 251 252 263 278 289 295 303 286 274 266
186 188 247 264 338 313 320 349 360 19 350 347 323 287 244 213 207 186 177 173 171 168 171 175 181 185 192 231 264 266 258 247 242 245 252 261 272 282 288 292 297 295 274 276
Height
1515 1515 1514 1512 1514 1516 1520 1522 1522 1518 1517 1522 1521 1520 1517 1520 1523 1522 1524 1527 1530 1531 1535 1539 1541 1545 1547 1549 1551 1553 1556 1558 1560 1562 1565 1567 1569 1571 1572 1574 1576 1578 1579 1581
1515 1511 1510 1513 1515 1517 1518 1520 1518 1517 1517 1520 1520 1516 1511 1513 1513 1515 1518 1521 1524 1529 1530 1533 1537 1541 1544 1548 1550 1552 1555 1557 1559 1562 1565 1567 1569 1571 1572 1573 1576 1578 1579 1580
1510 1509 1510 1511 1514 1516 1513 1516 1516 1517 1518 1519 1520 1510 1506 1505 1507 1509 1512 1515 1519 1523 1526 1529 1532 1537 1541 1545 1548 1550 1554 1556 1559 1561 1563 1565 1568 1570 1572 1573 1575 1577 1579 1580
1510 1507 1510 1512 1513 1512 1513 1510 1510 1515 1517 1523 1517 1522 1501 1499 1500 1502 1503 1508 1512 1517 1521 1525 1529 1532 1537 1541 1546 1550 1552 1554 1557 1560 1562 1563 1566 1569 1571 1573 1575 1576 1578 1580
1506 1505 1506 1509 1505 1509 1510 1508 1510 1514 1518 1518 1519 1524 1492 1501 1497 1494 1495 1498 1503 1509 1515 1519 1523 1527 1533 1538 1542 1547 1550 1553 1555 1558 1560 1563 1565 1568 1570 1572 1574 1576 1577 1579
1502 1504 1503 1498 1502 1505 1506 1510 1514 1517 1519 1525 1515 1515 1495 1493 1488 1485 1487 1490 1495 1503 1509 1514 1519 1525 1531 1536 1540 1544 1547 1550 1553 1556 1559 1561 1563 1566 1568 1570 1572 1574 1577 1578
1501 1499 1498 1498 1501 1505 1505 1507 1521 1525 1528 1517 1515 1516 1490 1484 1482 1481 1481 1482 1488 1496 1503 1509 1514 1519 1526 1530 1535 1540 1544 1547 1551 1554 1557 1560 1562 1564 1566 1568 1571 1572 1574 1576
1505 1506 1493 1490 1491 1495 1501 1499 1509 1530 1528 1510 1516 1508 1483 1479 1481 1479 1479 1479 1484 1491 1497 1502 1508 1514 1519 1526 1531 1535 1540 1544 1548 1551 1555 1558 1560 1562 1564 1566 1568 1570 1571 1573
1503 1500 1484 1485 1486 1487 1502 1504 1492 1508 1518 1515 1500 1491 1477 1477 1477 1478 1479 1479 1482 1486 1492 1498 1504 1509 1515 1520 1525 1531 1536 1541 1545 1549 1552 1555 1557 1560 1562 1563 1565 1566 1568 1570
1486 1498 1481 1481 1484 1488 1486 1487 1501 1504 1521 1520 1503 1502 1485 1477 1476 1478 1478 1479 1481 1485 1490 1495 1500 1506 1511 1516 1522 1528 1533 1537 1542 1546 1549 1551 1554 1557 1559 1561 1562 1563 1565 1567
1478 1486 1486 1483 1482 1479 1490 1489 1494 1493 1501 1503 1507 1491 1470 1471 1471 1474 1476 1478 1480 1482 1486 1491 1496 1503 1508 1513 1518 1523 1529 1533 1537 1541 1544 1548 1551 1553 1555 1557 1558 1560 1562 1563
1474 1476 1486 1480 1475 1477 1476 1476 1479 1490 1505 1502 1499 1488 1469 1470 1471 1472 1475 1477 1480 1482 1485 1489 1494 1499 1504 1510 1514 1520 1525 1530 1533 1537 1540 1543 1546 1549 1551 1553 1554 1557 1558 1560
1472 1476 1487 1479 1478 1477 1475 1475 1472 1477 1481 1497 1494 1483 1469 1470 1471 1471 1473 1476 1479 1481 1484 1488 1492 1497 1501 1507 1512 1517 1522 1526 1529 1533 1536 1539 1542 1544 1546 1548 1551 1553 1554 1556
1466 1466 1469 1471 1465 1460 1473 1472 1474 1464 1480 1480 1480 1471 1462 1469 1468 1469 1472 1475 1478 1481 1484 1488 1491 1495 1499 1504 1509 1513 1518 1522 1526 1528 1531 1535 1537 1539 1541 1544 1546 1548 1550 1550
1464 1466 1465 1456 1455 1461 1458 1460 1468 1466 1460 1474 1464 1474 1457 1462 1462 1466 1470 1473 1477 1480 1484 1487 1490 1494 1497 1501 1505 1510 1514 1518 1522 1524 1527 1531 1533 1535 1537 1539 1541 1542 1543 1545
1465 1462 1466 1460 1456 1457 1460 1456 1460 1459 1466 1467 1465 1465 1453 1459 1463 1466 1469 1473 1476 1480 1483 1487 1490 1493 1496 1500 1502 1506 1509 1513 1518 1521 1525 1527 1529 1531 1533 1535 1537 1538 1538 1537
1468 1461 1466 1464 1461 1463 1470 1455 1456 1454 1454 1451 1465 1450 1454 1456 1459 1461 1465 1470 1474 1478 1482 1486 1490 1493 1496 1499 1502 1504 1507 1510 1514 1517 1520 1522 1524 1526 1527 1528 1530 1531 1532 1533
1464 1464 1463 1458 1466 1472 1446 1446 1445 1445 1441 1448 1449 1447 1448 1449 1452 1457 1461 1465 1471 1476 1481 1485 1490 1493 1496 1498 1501 1504 1507 1510 1512 1514 1516 1518 1519 1521 1522 1523 1524 1525 1526 1527
1460 1461 1458 1457 1457 1451 1442 1446 1447 1448 1445 1442 1444 1445 1447 1452 1455 1458 1460 1465 1470 1475 1481 1485 1490 1493 1496 1499 1501 1504 1506 1509 1511 1513 1514 1515 1516 1517 1518 1518 1519 1520 1520 1520
1451 1453 1454 1457 1461 1463 1442 1441 1443 1446 1453 1435 1440 1443 1447 1451 1453 1448 1455 1462 1469 1475 1480 1485 1489 1493 1496 1498 1501 1504 1506 1508 1509 1511 1512 1513 1514 1514 1515 1515 1516 1516 1515 1515
1451 1450 1454 1450 1451 1440 1434 1435 1445 1464 1452 1439 1436 1438 1444 1446 1442 1445 1452 1460 1467 1473 1478 1483 1488 1492 1496 1498 1501 1503 1504 1506 1508 1509 1510 1511 1512 1512 1512 1512 1512 1511 1511 1510
1460 1445 1443 1442 1450 1455 1436 1440 1443 1444 1443 1440 1438 1439 1436 1441 1443 1445 1449 1456 1463 1470 1475 1481 1487 1491 1495 1498 1500 1501 1503 1505 1506 1507 1509 1509 1510 1510 1510 1509 1509 1507 1506 1505
1461 1459 1456 1446 1432 1440 1438 1436 1434 1438 1443 1440 1439 1439 1440 1439 1441 1445 1449 1455 1461 1468 1474 1480 1485 1490 1494 1497 1498 1500 1501 1502 1503 1504 1505 1506 1506 1506 1506 1505 1504 1503 1502 1500
1453 1456 1455 1450 1443 1442 1444 1441 1441 1438 1443 1441 1440 1437 1437 1439 1440 1443 1448 1453 1459 1466 1472 1478 1484 1489 1492 1494 1496 1497 1497 1498 1499 1500 1501 1502 1502 1502 1501 1501 1499 1497 1497 1496
1454 1458 1453 1450 1445 1443 1442 1440 1440 1437 1443 1441 1436 1434 1434 1438 1441 1442 1446 1452 1458 1464 1471 1477 1482 1486 1490 1492 1493 1494 1494 1495 1495 1496 1496 1497 1497 1498 1497 1495 1493 1491 1491 1491
1455 1454 1456 1448 1449 1450 1447 1444 1444 1441 1442 1441 1437 1433 1432 1434 1438 1442 1446 1451 1457 1464 1470 1476 1480 1484 1487 1489 1491 1491 1491 1492 1493 1493 1493 1493 1493 1493 1491 1490 1489 1488 1488 1487